Home   Weather   Hangzhou   Past weeks

Flag for China Past Weather in Hangzhou, Zhejiang, China — Yesterday and Last 2 Weeks

Now
64 °F

Clear.


Feels Like: 64 °F
Forecast: 45 / 65 °F
Wind: 3 mph from North

Location: Hangzhou Airport

Current Time: Dec 4, 2016 at 4:27:49 pm

Latest Report: Dec 4, 2016 at 4:00 pm


Visibility: 5 mi

Pressure: 30.07 "Hg

Humidity: 60%

Dew Point: 50 °F

Location of HangzhouLocation

Past Weather in Hangzhou — Graph

°F

Hangzhou Temperature Yesterday

Maximum temperature yesterday: 63 °F (at 1:00 pm)
Minimum temperature yesterday: 41 °F (at 5:00 am)
Average temperature yesterday: 52 °F

High & Low Weather Summary for the Past Weeks

 TemperatureHumidityPressure
High75 °F (Nov 19, 3:00 pm)100% (Nov 20, 2:30 am)30.54 "Hg (Nov 20, 2:30 am)
Low37 °F (Nov 24, 4:00 am)44% (Nov 27, 1:30 pm)29.92 "Hg (Nov 19, 3:00 pm)
Average52 °F82%30.30 "Hg
* Reported Nov 19 3:00 pm — Dec 4 3:00 pm, Hangzhou, Weather by CustomWeather, © 2016

Note: Actual official high and low records may vary slightly from our data, if they occured in-between our weather recording intervals... More about our weather records

Advertising

Hangzhou Weather History for the Previous 24 Hours

Scroll right to see more
 ConditionsComfort  
Time TempWeatherWind HumidityBarometerVisibility
3:00 pm
Sun, Dec 4
66 °FPassing clouds.6 mph56%30.07 "Hg5 mi
2:30 pm64 °FScattered clouds.6 mph60%30.07 "Hg5 mi
2:00 pm66 °FScattered clouds.6 mph56%30.09 "Hg5 mi
1:30 pm66 °FScattered clouds.6 mph60%30.09 "Hg5 mi
1:00 pm64 °FScattered clouds.3 mph64%30.09 "Hg5 mi
12:30 pm64 °FPassing clouds.3 mph64%30.12 "Hg4 mi
12:00 pm64 °FPassing clouds.1 mph64%30.12 "Hg4 mi
11:30 am61 °FHaze.6 mph68%30.15 "Hg3 mi
11:00 am61 °FFog.3 mph72%30.15 "Hg2 mi
10:30 am57 °FFog.3 mph88%30.18 "Hg2 mi
10:00 am57 °FFog.3 mph88%30.18 "Hg2 mi
9:30 am55 °FFog.3 mph94%30.18 "Hg2 mi
9:00 am55 °FFog.1 mph94%30.18 "Hg2 mi
8:30 am55 °FFog.1 mph88%30.18 "Hg2 mi
8:00 am54 °FFog.1 mph94%30.18 "Hg2 mi
7:30 am54 °FFog.1 mph94%30.18 "Hg2 mi
7:00 am54 °FFog.3 mph94%30.15 "Hg2 mi
6:30 am54 °FLight rain. Fog.3 mph94%30.15 "Hg2 mi
6:00 am54 °FLight rain. Fog.3 mph94%30.15 "Hg2 mi
5:30 am54 °FLight rain. Fog.3 mph94%30.15 "Hg2 mi
5:00 am54 °FFog.3 mph94%30.12 "Hg2 mi
4:30 am54 °FFog.1 mph94%30.12 "Hg2 mi
4:00 am54 °FLight rain. Fog.3 mph94%30.12 "Hg2 mi
3:30 am54 °FLight rain. Fog.3 mph94%30.12 "Hg3 mi
3:00 am54 °FFog.1 mph94%30.12 "Hg3 mi
2:30 am55 °FFog.3 mph88%30.15 "Hg3 mi
2:00 am54 °FFog.1 mph94%30.12 "Hg3 mi
1:30 am54 °FClear.1 mph94%30.15 "Hg4 mi
1:00 am54 °FClear.No wind94%30.15 "Hg4 mi
12:30 am54 °FClear.No wind94%30.15 "Hg4 mi
12:00 am55 °FClear.1 mph82%30.15 "Hg4 mi
11:30 pm
Sat, Dec 3
55 °FClear.No wind82%30.15 "Hg4 mi
11:00 pm55 °FClear.No wind82%30.18 "Hg4 mi
10:30 pm55 °FClear.1 mph82%30.18 "Hg4 mi
10:00 pm55 °FClear.3 mph82%30.18 "Hg4 mi
9:30 pm55 °FClear.1 mph82%30.18 "Hg4 mi
9:00 pm55 °FClear.1 mph82%30.18 "Hg4 mi
8:30 pm55 °FClear.3 mph82%30.18 "Hg4 mi
8:00 pm55 °FClear.1 mph82%30.18 "Hg4 mi
7:30 pm55 °FClear.3 mph82%30.21 "Hg4 mi
7:00 pm55 °FClear.3 mph77%30.21 "Hg4 mi
6:30 pm55 °FClear.1 mph82%30.21 "Hg4 mi
6:00 pm57 °FClear.3 mph72%30.21 "Hg4 mi
5:30 pm57 °FClear.6 mph72%30.21 "Hg4 mi
5:00 pm57 °FClear.3 mph72%30.21 "Hg4 mi
4:30 pm59 °FClear.3 mph68%30.21 "Hg4 mi
4:00 pm61 °FClear.6 mph63%30.21 "Hg4 mi
Weather by CustomWeather, © 2016

See weather overviewHow to use our weather pages